Simultaneous Nadir Overpasses (SNOs) Predictions

Prediction of SNOs between NOAA-20 and METOP-B Satellite Orbit:

Table of predicted SNOs for the next 14.0 days since TLE Epoch: 9/14/2024
Index Date (NOAA-20) Time (NOAA-20) Lat,Lon (NOAA-20) SZA (NOAA-20 ) Date (METOP-B) Time (METOP-B) Lat,Lon (METOP-B) SZA (METOP-B ) Distance(km) Time Diff (sec)
1 09/14/2024 03:59:56 73.36, 110.34 70.23 09/14/2024 03:58:57 73.36, 110.29 70.24 1.72 59
2 09/14/2024 04:50:40 -73.35, -82.32 109.78 09/14/2024 04:49:39 -73.34, -82.42 109.76 3.48 61
3 09/14/2024 05:41:26 73.37, 84.94 70.27 09/14/2024 05:40:18 73.39, 85.00 70.29 2.63 68
4 09/14/2024 06:32:10 -73.36,-107.72 109.74 09/14/2024 06:31:00 -73.37,-107.71 109.71 1.23 70
5 09/14/2024 07:22:55 73.34, 59.64 70.25 09/14/2024 07:21:41 73.31, 59.50 70.25 5.38 74
6 09/14/2024 08:13:38 -73.27,-132.90 109.81 09/14/2024 08:12:24 -73.25,-133.32 109.80 13.83 74
7 09/14/2024 09:04:19 73.05, 34.90 69.97 09/14/2024 09:03:08 73.03, 33.56 70.03 43.63 71
8 09/14/2024 09:55:01 -72.93,-157.54 110.15 09/14/2024 09:53:51 -72.97,-159.25 110.02 55.97 70
9 09/14/2024 10:45:42 72.71, 10.25 69.63 09/14/2024 10:44:36 72.70, 7.54 69.77 89.69 66
10 09/14/2024 11:36:25 -72.64, 177.69 110.43 09/14/2024 11:35:19 -72.64, 174.73 110.28 98.16 66



Historial Predications of SNOs between NOAA-20 and METOP-B
